Lubbock, TX

2:57 AM CDT on September 26, 2017 (GMT -0500)
Lubbock International

Weather History for KLBB - May, 2013

Change the Weather History Date:

Thursday, May 2, 2013

  Actual Average Record
Temperature  
Mean Temperature 41 °F 66 °F  
Max Temperature 50 °F 80 °F 97 °F (1943)
Min Temperature 32 °F 51 °F 30 °F (1967)
Degree Days  
Heating Degree Days 24 3  
Month to date heating degree days 31 6  
Since 1 July heating degree days 3153 3343  
Cooling Degree Days 0 3  
Month to date cooling degree days 0 6  
Year to date cooling degree days 62 62  
Moisture  
Dew Point 27 °F    
Average Humidity 59    
Maximum Humidity 82    
Minimum Humidity 36    
Precipitation  
Precipitation T in 0.06 in 1.91 in (1941)
Month to date precipitation T 0.11  
Year to date precipitation 2.27 4.02  
Snow  
Snow 0.00 in 0.00 in T in (2001)
Month to date snowfall 0.0 0.0  
Since 1 July snowfall 4.1 8.2  
Snow Depth 0.00 in    
Sea Level Pressure  
Sea Level Pressure 30.39 in    
Wind  
Wind Speed 24 mph (North)    
Max Wind Speed 39 mph    
Max Gust Speed 51 mph    
Visibility 9 miles    
Events Rain    
T = Trace of Precipitation, MM = Missing Value Source: NWS Daily Summary

Daily Weather History Graph

Daily Weather History Graph

Search for Another Location

Airport or City:

Trip Planner

Search our weather history database for the weather conditions in past years. The results will help you decide how hot, cold, wet, or windy it might be!

Date:

Astronomy

May. 02, 2013 Rise Set
Actual Time 6:57 AM CDT 8:31 PM CDT
Civil Twilight 6:30 AM CDT 8:58 PM CDT
Nautical Twilight 5:58 AM CDT 9:30 PM CDT
Astronomical Twilight 5:25 AM CDT 10:03 PM CDT
Moon 2:24 AM CDT (5/2) 1:43 PM CDT (5/2)
Length of Visible Light 14h 27m
Length of Day
13h 34m
Waning Gibbous, 47% of the Moon is Illuminated
May 2
Waning Gibbous
May 9
New
May 17
First Quarter
May 24
Full
May 31
Last Quarter

Hourly Weather History & Observations

Time (CDT) Temp. Windchill Dew Point Humidity Pressure Visibility Wind Dir Wind Speed Gust Speed Precip Events Conditions
12:53 AM 39.0 °F 26.6 °F 32.0 °F 76% 30.19 in 7.0 mi NNE 33.4 mph 44.9 mph N/A   Widespread Dust
1:44 AM 37.4 °F 24.0 °F 32.0 °F 81% 30.27 in 9.0 mi North 35.7 mph 46.0 mph N/A   Widespread Dust
1:53 AM 37.9 °F 25.7 °F 32.0 °F 79% 30.23 in 9.0 mi North 29.9 mph 50.6 mph N/A   Widespread Dust
2:11 AM 37.4 °F 25.0 °F 30.2 °F 75% 30.29 in 10.0 mi North 29.9 mph 44.9 mph N/A   Widespread Dust
2:48 AM 37.4 °F 25.4 °F 28.4 °F 70% 30.28 in 10.0 mi NNE 27.6 mph 41.4 mph N/A   Widespread Dust
2:53 AM 37.9 °F 24.6 °F 28.9 °F 70% 30.22 in 10.0 mi North 36.8 mph 46.0 mph N/A   Widespread Dust
3:18 AM 37.4 °F 25.4 °F 30.2 °F 75% 30.28 in 9.0 mi North 27.6 mph 49.5 mph N/A   Widespread Dust
3:53 AM 36.0 °F 23.5 °F 30.9 °F 82% 30.27 in 10.0 mi North 27.6 mph 40.3 mph N/A   Widespread Dust
4:53 AM 36.0 °F 23.9 °F 30.9 °F 82% 30.28 in 10.0 mi North 25.3 mph 39.1 mph 0.00 in Rain Light Rain
5:49 AM 35.6 °F 24.0 °F 30.2 °F 81% 30.35 in 10.0 mi North 23.0 mph 40.3 mph 0.00 in   Widespread Dust
5:53 AM 36.0 °F 23.5 °F 30.0 °F 79% 30.30 in 10.0 mi North 27.6 mph 40.3 mph 0.00 in   Widespread Dust
6:53 AM 36.0 °F 23.0 °F 28.9 °F 76% 30.35 in 10.0 mi North 29.9 mph 41.4 mph N/A   Widespread Dust
7:53 AM 36.0 °F 22.8 °F 30.0 °F 79% 30.41 in 10.0 mi North 31.1 mph 42.6 mph N/A   Widespread Dust
8:53 AM 37.0 °F 25.6 °F 28.0 °F 70% 30.44 in 10.0 mi North 24.2 mph 41.4 mph N/A   Widespread Dust
9:53 AM 37.9 °F 24.9 °F 28.0 °F 68% 30.47 in 10.0 mi North 34.5 mph 44.9 mph N/A   Widespread Dust
10:53 AM 39.9 °F 29.0 °F 28.0 °F 63% 30.48 in 10.0 mi North 26.5 mph 40.3 mph N/A   Widespread Dust
11:53 AM 42.1 °F 31.3 °F 27.0 °F 55% 30.50 in 10.0 mi NNE 29.9 mph 43.7 mph N/A   Widespread Dust
12:53 PM 41.0 °F 29.5 °F 27.0 °F 57% 30.51 in 9.0 mi North 32.2 mph 39.1 mph N/A   Widespread Dust
1:26 PM 44.6 °F 34.7 °F 26.6 °F 49% 30.50 in 10.0 mi North 29.9 mph 40.3 mph N/A   Overcast
1:53 PM 46.9 °F - 26.1 °F 44% 30.49 in 9.0 mi North 27.6 mph 39.1 mph N/A   Overcast
2:53 PM 48.0 °F - 25.0 °F 41% 30.49 in 7.0 mi North 29.9 mph 41.4 mph N/A   Mostly Cloudy
3:53 PM 48.9 °F - 25.0 °F 39% 30.48 in 6.0 mi NNE 26.5 mph 36.8 mph N/A   Haze
4:53 PM 48.9 °F - 25.0 °F 39% 30.48 in 10.0 mi NNE 31.1 mph 39.1 mph N/A   Mostly Cloudy
5:53 PM 50.0 °F - 24.1 °F 36% 30.46 in 10.0 mi NNE 26.5 mph 35.7 mph N/A   Scattered Clouds
6:53 PM 48.0 °F - 23.0 °F 37% 30.46 in 10.0 mi NNE 24.2 mph 36.8 mph N/A   Partly Cloudy
7:53 PM 46.9 °F - 21.9 °F 37% 30.46 in 10.0 mi NNE 21.9 mph 29.9 mph N/A   Partly Cloudy
8:53 PM 44.1 °F 37.7 °F 19.9 °F 38% 30.47 in 10.0 mi NNE 12.7 mph - N/A   Clear
9:53 PM 39.9 °F 35.1 °F 19.0 °F 43% 30.49 in 10.0 mi North 6.9 mph - N/A   Clear
10:53 PM 37.9 °F 32.1 °F 19.0 °F 47% 30.49 in 10.0 mi North 8.1 mph - N/A   Clear
11:53 PM 35.1 °F 31.0 °F 18.0 °F 50% 30.49 in 10.0 mi North 4.6 mph - N/A   Clear